Lexington Weather

Lexington, Massachusetts, USA

44°F
4/22/2024 8:54am 
  • Lexington Conditions: Clear
  • Temperature: 43.7°F / 6.5°CWarmer 3.8°F than last hour.
  • Dew Point: 27.7°FDecreased 1.1°Fsince last hour.
  • Relative Humidity: 53%Decreased 11.0% since last hour.
  • Wind: Calm, 10-min avg: Calm, gust: None
  • Barometer: 29.96 in Steady
  • Visibility: 10 miles
  • Rain Today: 0.00 in
  •   

Regional Weather Roundup
for Boston, MA

        
000
ASUS41 KBOX 171610
RWRBOX

REGIONAL WEATHER ROUNDUP
NATIONAL WEATHER SERVICE BOSTON/NORTON MA
1200 PM EDT WED APR 17 2024

NOTE:  "FAIR" INDICATES FEW OR NO CLOUDS BELOW 12,000 FEET WITH NO 
SIGNIFICANT WEATHER AND/OR OBSTRUCTIONS TO VISIBILITY.

MAZALL-171700-
EASTERN MASSACHUSETTS
  
CITY           SKY/WX    TMP DP  RH WIND       PRES   REMARKS
BOSTON         PTSUNNY   49  34  56 SE9       30.21F                  
BEVERLY        SUNNY     47  34  60 SE12      30.21S                  
LAWRENCE       SUNNY     54  30  40 VRB3      30.21F                  
BEDFORD        MOSUNNY   54  34  46 E5        30.18F                  
NORWOOD        MOSUNNY   57  35  43 S3        30.19F                  
MARSHFIELD     MOSUNNY   46  32  57 NE9       30.22S                  
PLYMOUTH       MOSUNNY   52  34  50 NE9       30.20F                  
TAUNTON        MOSUNNY   58  36  43 VRB3      30.19F                  
NEW BEDFORD    SUNNY     55  38  52 SE12      30.19F                  
$$

MAZALL-171700-
CAPE COD AND THE ISLANDS
  
CITY           SKY/WX    TMP DP  RH WIND       PRES   REMARKS
FALMOUTH       SUNNY     52  34  50 E6        30.21F                  
HYANNIS        MOSUNNY   51  34  52 NE5       30.20S                  
CHATHAM        SUNNY     49  32  52 E10       30.21F                  
PROVINCETOWN   SUNNY     46  34  62 VRB7      30.23F                  
NANTUCKET      SUNNY     51  34  52 NE8       30.21F                  
MARTHAS VNYRD  SUNNY     54  37  52 E7        30.20F                  
$$
 
MAZALL-171700-
CENTRAL AND WESTERN MASSACHUSETTS
  
CITY           SKY/WX    TMP DP  RH WIND       PRES   REMARKS
WORCESTER      PTSUNNY   55  33  43 SE3       30.16F                  
FITCHBURG      PTSUNNY   57  34  41 VRB5      30.18F                  
ORANGE         MOSUNNY   58  32  37 MISG      30.17F                  
SPRINGFIELD    NOT AVBL                                               
WESTFIELD      MOSUNNY   59  35  40 VRB5      30.16F                  
NORTH ADAMS    MOSUNNY   60  33  36 CALM      30.13F                  
PITTSFIELD     MOSUNNY   59  33  37 VRB6      30.12F                  
$$
 
RIZALL-171700-
RHODE ISLAND
  
CITY           SKY/WX    TMP DP  RH WIND       PRES   REMARKS
PROVIDENCE     PTSUNNY   55  37  50 SE7       30.20F                  
NEWPORT        MOSUNNY   51  38  60 S12       30.20F                  
BLOCK ISLAND   MOSUNNY   47  39  74 E16       30.21F                  
SMITHFIELD     MOSUNNY   58  34  40 SE7       30.18F                  
WESTERLY       MOSUNNY   52  40  63 SE10      30.21F                  
$$
 
CTZALL-171700-
CONNECTICUT
  
CITY           SKY/WX    TMP DP  RH WIND       PRES   REMARKS
BRADLEY INTL   PTSUNNY   61  35  37 SE7       30.17F                  
HARTFORD       PTSUNNY   60  37  42 W3        30.17F                  
PLAINVILLE     CLOUDY    59  34  39 CALM      30.16F                  
BRIDGEPORT     MOSUNNY   54  41  61 E16       30.19F                  
DANBURY        CLOUDY    58  35  42 S9G20     30.17F                  
GROTON         MOSUNNY   53  42  66 SE13      30.20S                  
NEW HAVEN      PTSUNNY   56  39  53 SE14G22   30.20F                  
CHESTER        MOSUNNY   57  32  38 SE12      30.19S                  
MERIDEN        CLOUDY    60  33  36 SE5       30.17F                  
WILLIMANTIC    MOSUNNY   58  35  42 VRB7      30.18F                  
OXFORD         PTSUNNY   57  36  45 S12       30.18F                  
$$

MEZ002-015-021-024-NHZ003-005-008-011-012-014-VTZ005-008-171700-
NORTHERN NEW ENGLAND
  
CITY           SKY/WX    TMP DP  RH WIND       PRES   REMARKS
PORTLAND ME    MOSUNNY   51  29  42 NW8       30.19F                  
BANGOR ME      MOSUNNY   51  25  36 N14G23    30.16F                  
CONCORD NH     MOSUNNY   53  30  41 MISG      30.17F                  
MANCHESTER NH  PTSUNNY   55  30  38 VRB3      30.17F                  
NASHUA NH      MOSUNNY   55  33  43 VRB3      30.19F                  
PORTSMOUTH NH  NOT AVBL                                               
JAFFREY NH     PTSUNNY   58  33  39 W8        30.16F                  
KEENE NH       PTSUNNY   55  34  45 SE3       30.17F                  
BURLINGTON VT  MOSUNNY   48  27  44 NW9       30.22F                  
MT. WASHINGTON PTSUNNY   27  14  59 NW21        N/A  WCI  13          
$$

NYZ052-076-171700-
EASTERN NEW YORK
  
CITY           SKY/WX    TMP DP  RH WIND       PRES   REMARKS
ALBANY         PTSUNNY   59  34  39 CALM      30.17F                  
NEW YORK CITY  PTSUNNY   54  40  59 NE15      30.16F                  
$$
 
ANZALL-171700-
MARINE OBSERVATIONS
  
STATION/POSITION TIME  TEMP    WIND        PRES    VSBY  WAVE
                       AIR SEA DIR/SP/G                  HT/PER
                 (UTC) (F)     (DEG/KT/KT) (MB)    (MI)  (FT/S)
BOSTON BUOY      1550   44     110/  6/  8 1023.1F         2/ 9
BUZZARDS BAY     1500   46     140/  6/  7 1023.9F
NANTUCKET SOUND  1550   46 47   90/  8/ 12 1022.8F         1/ 4
MASS BAY-STELLWA 1404   45 45   50/  4/  6 1024.4F  1 7/8  3/ 8
ISLE OF SHOALS   1500   42     100/  6/  7 1022.7F
S OF BLOCK IS    1526      45                N/A           3/ 8
$$

......................KEY.........................
  SKY/WX - SKY CONDITION/PRESENT WEATHER
  TMP    - TEMPERATURE IN FAHRENHEIT
  DWPT   - DEWPOINT IN FAHRENHEIT
  RH     - RELATIVE HUMIDITY IN PERCENT
  WIND   - DIRECTION AND SPEED IN MPH
  PRES   - MEAN SEA LEVEL PRESSURE IN INCHES OF HG
  WCI    - WIND CHILL INDEX
  VSB    - VISIBILITY IN MILES
  HX     - HEAT INDEX
  TC     - TEMPERATURE IN CELSIUS
  VRB    - VARIABLE WIND DIRECTION
  N/A    - NOT AVAILABLE
  
      

Other recent Regional Weather Roundups

Mon Apr 22, 8:10am EDT

Mon Apr 22, 7:10am EDT

Mon Apr 22, 6:10am EDT

Mon Apr 22, 5:10am EDT

Mon Apr 22, 4:10am EDT

Mon Apr 22, 3:10am EDT

Mon Apr 22, 2:10am EDT

Mon Apr 22, 1:10am EDT

Mon Apr 22, 12:10am EDT

Sun Apr 21, 11:10pm EDT

Sun Apr 21, 10:10pm EDT

Sun Apr 21, 9:10pm EDT

Sun Apr 21, 8:10pm EDT

Sun Apr 21, 7:10pm EDT

Sun Apr 21, 6:10pm EDT

Sun Apr 21, 5:10pm EDT

Sun Apr 21, 4:10pm EDT

Sun Apr 21, 3:10pm EDT

Sun Apr 21, 2:10pm EDT

Sun Apr 21, 1:10pm EDT

Sun Apr 21, 12:10pm EDT

Sun Apr 21, 11:10am EDT

Sun Apr 21, 10:10am EDT

Sun Apr 21, 9:10am EDT

Sun Apr 21, 8:10am EDT

Sun Apr 21, 7:10am EDT

Sun Apr 21, 6:10am EDT

Sun Apr 21, 5:10am EDT

Sun Apr 21, 4:10am EDT

Sun Apr 21, 3:10am EDT

Sun Apr 21, 2:10am EDT

Sun Apr 21, 1:10am EDT

Sun Apr 21, 12:10am EDT

Sat Apr 20, 11:10pm EDT

Sat Apr 20, 10:10pm EDT

Sat Apr 20, 9:10pm EDT

Sat Apr 20, 8:10pm EDT

Sat Apr 20, 7:10pm EDT

Sat Apr 20, 6:10pm EDT

Sat Apr 20, 5:10pm EDT

Sat Apr 20, 4:10pm EDT

Sat Apr 20, 3:10pm EDT

Sat Apr 20, 2:10pm EDT

Sat Apr 20, 1:10pm EDT

Sat Apr 20, 12:10pm EDT

Sat Apr 20, 11:10am EDT

Sat Apr 20, 10:10am EDT

Sat Apr 20, 9:10am EDT

Sat Apr 20, 8:10am EDT

Sat Apr 20, 7:10am EDT

Sat Apr 20, 6:10am EDT

Sat Apr 20, 5:10am EDT

Sat Apr 20, 4:10am EDT

Sat Apr 20, 3:10am EDT

Sat Apr 20, 2:10am EDT

Sat Apr 20, 1:10am EDT

Sat Apr 20, 12:10am EDT

Fri Apr 19, 11:10pm EDT

Fri Apr 19, 10:10pm EDT

Fri Apr 19, 9:10pm EDT

Fri Apr 19, 8:10pm EDT

Fri Apr 19, 7:10pm EDT

Fri Apr 19, 6:10pm EDT

Fri Apr 19, 5:10pm EDT

Fri Apr 19, 4:10pm EDT

Fri Apr 19, 3:10pm EDT

Fri Apr 19, 2:10pm EDT

Fri Apr 19, 1:10pm EDT

Fri Apr 19, 12:10pm EDT

Fri Apr 19, 11:10am EDT

Fri Apr 19, 10:10am EDT

Fri Apr 19, 9:10am EDT

Fri Apr 19, 8:10am EDT

Fri Apr 19, 7:10am EDT

Fri Apr 19, 6:10am EDT

Fri Apr 19, 5:10am EDT

Fri Apr 19, 4:10am EDT

Fri Apr 19, 3:10am EDT

Fri Apr 19, 2:10am EDT

Fri Apr 19, 1:10am EDT

Fri Apr 19, 12:10am EDT

Thu Apr 18, 11:10pm EDT

Thu Apr 18, 10:10pm EDT

Thu Apr 18, 9:10pm EDT

Thu Apr 18, 8:10pm EDT

Thu Apr 18, 7:10pm EDT

Thu Apr 18, 6:10pm EDT

Thu Apr 18, 5:10pm EDT

Thu Apr 18, 4:10pm EDT

Thu Apr 18, 3:10pm EDT

Thu Apr 18, 2:10pm EDT

Thu Apr 18, 1:10pm EDT

Thu Apr 18, 12:10pm EDT

Thu Apr 18, 11:10am EDT

Thu Apr 18, 10:10am EDT

Thu Apr 18, 9:10am EDT

Thu Apr 18, 8:10am EDT

Thu Apr 18, 7:10am EDT

Thu Apr 18, 6:10am EDT

Thu Apr 18, 5:10am EDT

Thu Apr 18, 4:10am EDT

Thu Apr 18, 3:10am EDT

Thu Apr 18, 2:10am EDT

Thu Apr 18, 1:10am EDT

Thu Apr 18, 12:10am EDT

Wed Apr 17, 11:10pm EDT

Wed Apr 17, 10:10pm EDT

Wed Apr 17, 9:10pm EDT

Wed Apr 17, 8:10pm EDT

Wed Apr 17, 7:10pm EDT

Wed Apr 17, 6:10pm EDT

Wed Apr 17, 5:10pm EDT

Wed Apr 17, 4:10pm EDT

Wed Apr 17, 3:10pm EDT

Wed Apr 17, 2:10pm EDT

Wed Apr 17, 1:10pm EDT

Wed Apr 17, 11:10am EDT

Wed Apr 17, 10:10am EDT

Wed Apr 17, 9:10am EDT

Wed Apr 17, 8:10am EDT

Wed Apr 17, 7:10am EDT

Wed Apr 17, 6:10am EDT

Wed Apr 17, 5:10am EDT

Wed Apr 17, 4:10am EDT

Wed Apr 17, 3:10am EDT

Wed Apr 17, 2:10am EDT

Wed Apr 17, 1:10am EDT

Wed Apr 17, 12:10am EDT

Tue Apr 16, 11:10pm EDT

Tue Apr 16, 10:10pm EDT

Tue Apr 16, 9:10pm EDT

Tue Apr 16, 8:10pm EDT

Tue Apr 16, 7:10pm EDT

Tue Apr 16, 6:10pm EDT

Tue Apr 16, 5:10pm EDT

Tue Apr 16, 4:10pm EDT

Tue Apr 16, 3:10pm EDT

Tue Apr 16, 2:10pm EDT

Tue Apr 16, 1:10pm EDT

Tue Apr 16, 12:10pm EDT

Tue Apr 16, 11:10am EDT

Tue Apr 16, 10:10am EDT

Tue Apr 16, 9:10am EDT

Tue Apr 16, 8:10am EDT

Tue Apr 16, 7:10am EDT

Tue Apr 16, 6:10am EDT

Tue Apr 16, 5:10am EDT

Tue Apr 16, 4:10am EDT

Tue Apr 16, 3:10am EDT

Tue Apr 16, 2:10am EDT

Tue Apr 16, 1:10am EDT

Tue Apr 16, 12:10am EDT

Mon Apr 15, 11:10pm EDT

Mon Apr 15, 10:10pm EDT

Mon Apr 15, 9:10pm EDT

Mon Apr 15, 8:10pm EDT

Mon Apr 15, 7:10pm EDT

Mon Apr 15, 6:10pm EDT

Mon Apr 15, 5:10pm EDT

Mon Apr 15, 4:10pm EDT

Mon Apr 15, 3:10pm EDT

Mon Apr 15, 2:10pm EDT

Mon Apr 15, 1:10pm EDT

Mon Apr 15, 12:10pm EDT

Mon Apr 15, 11:10am EDT

Mon Apr 15, 10:10am EDT

Mon Apr 15, 9:10am EDT